YAOGAN-31 G

导读 | 豆包AI

YAOGAN-31 G是中国于**2021年2月24日8时**发射的遥感卫星,隶属于中国“遥感”系列卫星家族。该系列卫星主要用于开展国土普查、环境监测、灾害预警、地理测绘以及科学实验等任务,为国民经济建设提供数据支撑,也服务于防灾减灾、资源开发等领域,彰显了中国在航天遥感领域持续的探索与进步。

Basic Information
目录编号:
47691
目录名称:
YAOGAN-31 G
国际标识:
2021-014A
轨道中心:
EARTH
卫星名称:
YAOGAN-31 G
卫星全名:
--
卫星状态:
在轨 (已飞行1892 天)
发射日期:
2021-02-24 UTC
国别 :
中国 (CN)
星等 :
--
Orbit Information
数据来源 国际轨道数据 AOE轨道数据
星历时间 2026-05-01T07:16:33+0800
6小时前
查看轨道信息
2026-05-01T05:00:00+0800
9小时前
查看轨道信息
半长轴 7467.194km 7467.189km
偏心率 0.0173062 0.0175186
轨道倾角 63.405° 63.402°
近地点辐角 0.552° 0.499°
升交点赤经 319.196° 319.425°
平近点角 359.567° 260.337°
近地点 959.828km 958.237km
远地点 1218.286km 1219.867km
周期 107.028分钟 107.028分钟
每日圈数 13.454472 13.454484
Detailed Information
使用方式:
暂无
2D Orbit Map
3D Orbit Map
Orbit Altitude Analysis Chart
Orbit Inclination Analysis Chart
Orbit Comprehensive Analysis Chart
View Comprehensive Chart